Regional Weather Roundup
Issued by NWS San Angelo, TX

Home | Current Version | Previous Version | Text Only | Print | Product List | Glossary On
Versions: 1 2 3 4 5 6 7 8 9 10 11 12 13 14 15 16 17 18 19 20 21 22 23 24 25 26 27 28 29 30 31 32 33 34 35 36 37 38 39 40 41 42 43 44 45 46 47 48 49 50
000
ASUS44 KSJT 111911
RWRSJT
WEST CENTRAL TEXAS REGIONAL WEATHER ROUNDUP
NATIONAL WEATHER SERVICE SAN ANGELO TX
100 PM CST THU FEB 11 2016

NOTE: "FAIR" INDICATES FEW OR NO CLOUDS BELOW 12,000 FEET WITH NO
SIGNIFICANT WEATHER AND/OR OBSTRUCTIONS TO VISIBILITY.

TXZ049-054-064>066-071>073-076>078-098-099-113-114-127-128-139-140-
154-155-168>170-112000
...LOCATIONS ACROSS WEST CENTRAL TEXAS...

CITY           SKY/WX    TMP DP  RH WIND       PRES   REMARKS
SAN ANGELO     SUNNY     81  23  11 W13G18    30.09F
ABILENE        SUNNY     67  31  26 NW7       30.12F
DYESS AFB      SUNNY     66  29  24 N8        30.11F
JUNCTION       SUNNY     80  21  11 SW13      30.10F
SWEETWATER     SUNNY     65  23  20 N6        30.16F
BROWNWOOD      SUNNY     77  28  16 W9        30.10F
COLEMAN        CLEAR     77  26  15 W10       30.10F
SONORA         SUNNY     75  25  15 SW9G16    30.17F
OZONA          FAIR      77  23  13 W6        30.16F
BRADY          NOT AVBL
$$

TEXAS PANHANDLE/OKLAHOMA PANHANDLE

CITY           SKY/WX    TMP DP  RH WIND       PRES   REMARKS
AMARILLO       SUNNY     61  22  22 SE5       30.21F
BORGER         SUNNY     59  28  30 VRB3      30.20F
CANADIAN       SUNNY     58  32  37 CALM      30.19F
DALHART        SUNNY     64  24  21 S8        30.21F
DUMAS          CLEAR     63  28  26 SE5       30.20F
GUYMON         NOT AVBL
HEREFORD       NOT AVBL
PAMPA          CLEAR     62  27  27 S5        30.19F
PERRYTON       CLOUDY    58  32  37 S8        30.19F
$$

SOUTHERN PANHANDLE/SOUTH PLAINS/ROLLING PLAINS

CITY           SKY/WX    TMP DP  RH WIND       PRES   REMARKS
LUBBOCK        MOSUNNY   64  26  23 NE12G17   30.18F
SNYDER           N/A     63  29  27 N7        30.15F
CHILDRESS      SUNNY     63  29  27 NE9       30.18F
SEMINOLE       CLEAR     61  25  25 NE8       30.19F
$$

PERMIAN BASIN

CITY           SKY/WX    TMP DP  RH WIND       PRES   REMARKS
MIDLAND        SUNNY     69  24  18 W12       30.15F
ODESSA         SUNNY     69  22  16 NW10      30.16F
WINK           SUNNY     72  22  15 N9        30.15F
$$

FAR WEST/SOUTHWEST MOUNTAINS/TRANS PECOS

CITY           SKY/WX    TMP DP  RH WIND       PRES   REMARKS
ALPINE         CLEAR     72  12  10 N3        30.28F
DRYDEN           N/A     79  19  10 SW16G25   30.12F
EL PASO        SUNNY     63  19  18 S5        30.26F
FORT STOCKTON  SUNNY     72  21  14 NW14      30.18F
GUADALUPE PASS SUNNY     62  16  16 SW15      30.28F
MARFA          SUNNY     71  15  11 NW10      30.26F
PECOS          CLEAR     71  22  16 NW15      30.18F
$$

DALLAS/FORT WORTH METROPLEX

CITY           SKY/WX    TMP DP  RH WIND       PRES   REMARKS
DFW AIRPORT    PTSUNNY   71  28  20 NW10      30.08F
FTW MEACHAM    SUNNY     74  31  20 NW7       30.08F
DAL-EXECUTIVE  SUNNY     73  31  21 NW12      30.08F
GRAND PRAIRIE  SUNNY     72  30  21 W7        30.10F
ADDISON        MOSUNNY   70  32  24 NW9       30.09F
MESQUITE       CLEAR     73  28  19 W13       30.09F
LANCASTER      CLEAR     72  26  17 CALM      30.10F
$$

NORTH CENTRAL TEXAS

CITY           SKY/WX    TMP DP  RH WIND       PRES   REMARKS
SHRMAN/DENISON CLEAR     67  35  30 NE8       30.11F
GAINESVILLE    SUNNY     67  33  28 NE5       30.12F
BRIDGEPORT     CLEAR     66  38  35 W3        30.13F
DENTON         SUNNY     67  36  31 CALM      30.10F
WAXAHACHIE     CLEAR     75  37  25 W6        30.11F
GRANBURY       CLEAR     76  33  21 NW8       30.10F
$$

WESTERN NORTH TEXAS

CITY           SKY/WX    TMP DP  RH WIND       PRES   REMARKS
WICHITA FALLS  SUNNY     66  33  29 NE13      30.13F
VERNON         CLEAR     64  28  25 NE13      30.17F
BRECKENRIDGE   CLEAR     70  28  20 N5        30.10F
COMANCHE       SUNNY     76  33  20 W6        30.10F
$$

CENTRAL AND SOUTH CENTRAL TEXAS

CITY           SKY/WX    TMP DP  RH WIND       PRES   REMARKS
AUSTIN/BERGSTM SUNNY     77  39  25 S15G23    30.11F
WACO           SUNNY     79  34  19 VRB6      30.08F
HILLSBORO      CLEAR     73  34  23 W5        30.10F
TEMPLE         SUNNY     81  36  19 SW17      30.09F
KILLEEN-GRAY   SUNNY     79  33  18 S10       30.08F
FORT HOOD      SUNNY     80  31  17 SW10      30.07F
GEORGETOWN     SUNNY     81  37  21 SW14G21   30.10F
LAGO VISTA     FAIR      79  29  15 SW13G18   30.12F
SAN MARCOS     SUNNY    N/A N/A N/A S15       30.14F
NEW BRAUNFELS  SUNNY     77  38  24 SW16      30.13F
RANDOLPH AFB   SUNNY     74  39  28 SW9       30.14F
SAN ANTONIO    SUNNY     75  39  27 SW13      30.14F
STINSON        SUNNY     78  38  23 S12       30.12F
PLEASANTON     NOT AVBL
LA GRANGE      SUNNY     77  45  32 S12       30.13F
GIDDINGS       CLEAR     75  40  28 SW12G21   30.17F
$$

EAST TEXAS

CITY           SKY/WX    TMP DP  RH WIND       PRES   REMARKS
PARIS          SUNNY     66  36  32 N3        30.08F
CLARKSVILLE    NOT AVBL
TYLER          SUNNY     75  33  21 SW12      30.09F
LONGVIEW       SUNNY     76  33  21 W15G22    30.07F
PALESTINE      CLEAR     76  38  25 SW8       30.12F
NACOGDOCHES    SUNNY     73  37  27 W12G21    30.11F
$$

TEXAS HILL COUNTRY AND EDWARDS PLATEAU

CITY           SKY/WX    TMP DP  RH WIND       PRES   REMARKS
LLANO          CLEAR     81  36  19 S3        30.12F
HORSESHOE BAY  FAIR      82  33  16 SW6G17    30.10F
KERRVILLE      SUNNY     79  30  17 SW12      30.14F
FREDERICKSBRG  SUNNY     77  30  17 SW10      30.12F
ROCKSPRINGS    CLEAR     79  30  17 SW7       30.17F
HONDO          SUNNY     75  34  22 SW9       30.16F
UVALDE         CLEAR     73  36  26 CALM      30.15F
DEL RIO        SUNNY     74  29  19 CALM      30.12F
$$

SOUTHEAST TEXAS

CITY           SKY/WX    TMP DP  RH WIND       PRES   REMARKS
COLLEGE STN    SUNNY     77  40  26 SW14      30.13F
CALDWELL       CLEAR     75  36  23 S16       30.15F
CROCKETT       CLEAR     75  41  29 SW13      30.14F
BRENHAM        SUNNY     78  42  27 SW10G20   30.15F
HUNTSVILLE     SUNNY     76  42  29 SW16      30.13F
CONROE         SUNNY     75  42  30 SW13G21   30.15F
HOUSTON BUSH   SUNNY     76  44  32 SW13G18   30.15F
HOUSTON HOBBY  SUNNY     76  45  33 SW20G25   30.15F
PERLAND        SUNNY     77  46  33 SW16G25   30.18F
WHARTON        CLEAR     77  46  32 S15G23    30.18F
$$

THE UPPER TEXAS COAST

CITY           SKY/WX    TMP DP  RH WIND       PRES   REMARKS
ORANGE         CLEAR     75  49  39 W12G18    30.18F
PORT ARTHUR    SUNNY     76  55  48 SW15      30.16F
GALVESTON      SUNNY     71  60  68 SW22G32   30.19F
ANGLETON       SUNNY     75  54  47 SW13G24   30.19F
BAY CITY       PTCLDY    74  54  49 SW21G28   30.20F
$$

TEXAS COASTAL BEND, RIO GRANDE PLAINS DEEP SOUTH TEXAS

CITY           SKY/WX    TMP DP  RH WIND       PRES   REMARKS
VICTORIA       SUNNY     77  45  32 SW15      30.17F
BEEVILLE       FAIR      79  41  25 SW12G20   30.16F
ROCKPORT       SUNNY     74  53  48 S14G20    30.17F
PORT ARANSAS   CLEAR     68  58  71 S13G21    30.18F
PORT LAVACA    CLEAR     75  47  36 S22G31    30.19F
CORPUS CHRISTI SUNNY     81  43  26 S14G24    30.16F
KINGSVILLE NAS NOT AVBL
COTULLA        SUNNY     81  38  21 SE5       30.13F
LAREDO         SUNNY     80  38  22 SE9       30.14
BROWNSVILLE    SUNNY     76  49  38 S25G33    30.18F
PORT ISABEL    SUNNY     77  54  44 S21G30    30.17F
HEBBRONVILLE   NOT AVBL
MCALLEN        SUNNY     84  36  18 SE17G26   30.14F
WESLACO        SUNNY     81  43  26 S15G26    30.14F
FALFURRIAS     CLEAR     80  37  21 S10G17    30.15F
EDINBURG       CLEAR     82  35  18 S15G24    30.15F
$$



USA.gov is the U.S. government's official web portal to all federal, state and local government web resources and services.